Probability
0 0 0 0 0 0 0 0 0 1 2 3 5 7 7 6 7 8 9 14 20 20 15 16 20 22 20 19 16 12 9 8 7 6 5 4 3 4 5 6 6 6 6 6 4 3 1 0 1
0 0 0 0 0 0 0 1 1 2 3 3 5 6 6 6 7 10 12 17 23 23 19 19 23 23 21 20 17 13 11 9 7 6 5 4 3 4 5 6 6 7 7 6 5 4 3 1 1
0 0 0 0 0 0 1 2 3 4 4 4 5 5 5 6 9 12 15 20 26 26 23 24 27 26 24 21 18 14 13 11 8 7 6 5 5 5 6 7 7 7 8 8 7 8 7 5 3
0 0 0 0 0 1 2 4 4 3 3 5 6 6 7 9 11 14 15 19 25 26 25 28 29 29 26 22 18 16 15 13 11 9 7 7 8 8 9 8 8 8 8 8 8 10 11 8 5
0 0 0 0 1 2 4 5 4 4 4 5 7 8 11 13 14 14 15 17 19 22 26 30 30 29 27 24 21 20 18 16 14 13 11 10 9 9 9 9 9 9 8 8 8 10 11 9 7
0 0 0 0 1 3 4 4 5 5 6 7 9 11 13 14 14 13 14 14 15 21 27 28 28 26 25 25 25 25 22 18 16 15 14 12 10 8 8 9 10 10 10 9 9 11 11 8 7
0 0 0 0 1 3 3 4 4 5 6 8 9 11 11 12 14 14 13 11 13 21 26 25 22 22 24 25 26 27 24 20 16 14 14 13 11 8 7 8 10 11 11 10 11 12 11 8 7
0 0 0 0 2 3 4 4 4 4 6 7 8 11 13 15 15 16 14 12 13 20 25 25 22 22 23 24 26 28 26 22 17 14 13 12 10 8 7 8 10 12 11 10 10 11 10 8 8
0 0 0 0 1 2 3 3 3 5 7 9 12 15 19 20 20 19 17 15 14 19 24 25 24 23 23 25 28 28 26 22 18 15 14 12 10 8 7 9 12 14 13 11 11 11 10 8 7
0 0 0 0 1 2 2 2 3 5 8 12 18 20 21 23 23 22 20 18 17 19 21 23 25 24 23 28 31 28 25 23 20 17 17 15 13 11 11 12 14 15 14 13 12 12 11 9 8
0 0 0 0 1 2 2 2 3 4 8 14 19 21 21 21 21 19 19 18 18 20 22 25 29 29 28 31 34 31 27 26 23 22 22 19 17 17 19 18 16 15 15 15 15 14 12 11 10
0 0 0 0 1 2 3 3 3 4 7 12 16 18 20 20 18 16 17 19 20 23 28 33 37 38 36 35 34 32 30 28 26 26 26 24 21 22 23 22 19 16 16 17 18 16 13 11 10
0 0 0 1 1 3 3 3 3 5 7 10 12 15 19 20 19 19 21 23 26 30 37 40 43 45 44 39 36 33 32 31 30 30 28 24 22 21 21 22 20 18 17 18 21 19 15 12 11
0 0 0 1 2 2 2 2 3 5 6 8 10 13 16 18 20 24 27 29 34 39 42 42 43 46 46 42 39 37 35 34 33 31 26 21 19 19 19 20 20 18 16 18 20 20 19 16 14
0 0 0 1 1 1 1 2 3 5 6 7 10 13 16 17 20 25 29 34 41 44 44 42 41 44 46 43 42 40 36 33 32 30 26 21 18 18 19 18 18 17 17 19 20 20 19 17 13
0 0 0 0 0 0 0 1 4 6 7 8 11 14 18 20 19 21 27 36 44 47 46 43 41 43 46 45 44 40 33 29 29 29 27 24 20 19 19 17 17 19 19 19 19 18 18 15 11
0 0 0 0 0 0 1 2 5 7 8 9 11 14 18 20 19 20 26 36 43 46 48 46 44 45 46 47 45 39 33 28 28 27 26 25 22 19 18 17 18 21 20 17 14 15 16 14 12
0 0 0 0 1 1 2 2 5 7 8 9 9 11 15 18 19 21 27 34 40 44 47 46 45 46 47 47 46 41 34 29 26 23 23 22 20 18 16 16 17 20 19 14 12 13 14 14 15
0 0 0 0 1 2 2 2 5 6 6 6 8 10 13 16 20 23 26 30 35 41 45 45 46 47 47 46 46 42 35 29 24 20 18 19 19 18 17 16 18 19 16 15 15 14 13 13 14
0 0 0 0 1 2 2 3 6 6 4 5 9 12 13 15 19 23 24 25 30 37 41 43 45 47 47 46 44 41 35 28 21 17 16 17 18 18 17 18 19 19 16 15 16 15 12 11 11
0 0 0 0 0 1 1 3 6 8 6 5 9 13 14 13 17 20 22 24 28 34 38 41 44 45 45 44 42 38 32 24 19 16 15 16 16 16 16 18 18 17 15 14 14 14 12 11 10
0 0 0 0 0 0 1 2 6 9 8 7 8 11 11 11 12 15 18 22 26 30 35 40 42 43 41 40 37 34 27 21 18 17 16 16 16 16 16 17 17 15 13 11 11 12 12 11 11
0 0 0 0 0 0 0 1 5 8 10 9 8 8 9 10 10 13 16 19 21 26 32 38 41 40 38 35 33 30 24 20 18 17 16 17 18 17 16 17 16 14 11 10 11 11 11 10 10
0 0 0 0 0 0 0 1 5 9 10 9 8 9 10 11 11 12 15 17 19 22 28 34 38 39 37 33 30 27 23 19 18 16 16 18 19 17 14 14 14 13 11 11 12 11 10 10 10
0 0 0 0 0 0 0 2 5 8 8 7 7 9 11 12 11 11 14 17 17 19 24 29 33 36 35 31 27 24 22 19 18 18 17 17 17 15 12 11 12 11 10 11 13 12 11 10 10
0 0 0 0 0 1 1 3 5 5 5 5 5 7 8 9 10 11 14 16 16 18 22 27 29 30 29 28 24 22 21 19 18 18 18 16 14 12 9 9 10 10 10 11 13 12 11 10 10
0 0 0 0 0 1 2 4 5 4 3 4 5 5 5 6 8 11 13 15 15 17 23 27 27 26 25 25 23 21 20 20 19 17 16 13 12 11 9 9 10 11 11 12 12 12 12 11 10
0 0 0 0 0 1 2 4 6 5 4 5 6 6 5 4 7 10 11 13 13 14 19 23 24 22 22 22 21 20 20 19 18 16 14 12 12 11 11 11 11 11 11 11 11 10 10 10 8
0 0 0 0 0 1 1 3 4 4 4 4 6 6 5 5 6 8 9 11 11 11 12 16 19 19 18 17 17 19 20 19 18 17 15 13 12 12 12 11 11 10 9 8 7 6 5 5 4
0 0 0 0 0 1 1 2 4 4 4 4 6 6 5 5 5 6 7 9 10 9 11 13 16 17 16 14 15 20 21 19 18 17 16 14 12 12 12 11 9 8 7 6 5 3 2 1 1
Wind_Speed
8 11 10 8 7 8 9 6 1 3 5 7 7 7 8 10 9 8 5 9 14 14 14 15 14 13 12 12 11 11 11 11 11 10 9 9 8 8 7 7 6 6 6 6 5 5 4 4 3
9 12 9 7 7 8 5 2 4 5 6 6 6 6 6 10 11 9 6 8 14 14 13 13 14 13 12 12 12 11 11 11 10 10 9 9 8 7 7 6 6 5 5 5 4 4 3 3 2
12 15 8 7 10 8 3 3 4 4 4 4 4 6 6 8 8 7 8 10 13 13 13 13 15 13 13 12 12 11 11 10 10 9 9 8 8 7 6 6 5 5 5 4 4 3 3 2 1
9 9 7 8 10 7 3 2 2 3 3 3 3 4 7 7 5 8 10 11 12 13 14 14 14 13 12 12 12 12 11 10 10 9 9 8 7 7 6 5 5 4 3 3 2 2 2 1 0
10 8 9 10 10 6 3 3 3 2 2 3 4 5 7 7 8 9 9 10 11 13 14 15 14 13 12 12 11 11 11 10 10 9 8 8 7 6 5 4 4 3 2 2 2 1 1 1 1
8 8 10 10 8 4 3 2 1 1 1 2 4 6 7 7 7 7 9 9 10 12 14 14 14 14 13 12 11 11 11 10 10 9 8 8 7 6 5 4 4 3 2 2 1 1 1 2 3
10 10 11 12 8 4 3 2 1 1 2 2 3 5 7 7 7 7 8 8 9 11 13 12 12 12 12 12 12 11 11 10 10 9 8 7 7 6 6 5 4 3 2 2 2 2 3 3 4
10 11 13 11 8 3 1 1 1 1 2 3 3 3 5 8 8 8 7 7 9 10 11 11 10 10 10 11 12 12 11 11 10 9 9 8 7 6 6 6 5 4 4 4 4 4 5 6 6
11 10 10 9 7 3 1 1 1 2 4 3 4 6 8 8 8 8 7 6 7 8 9 9 9 8 7 9 11 11 11 10 10 8 9 8 6 6 6 6 7 7 6 6 6 7 7 7 9
8 8 8 8 6 5 3 3 1 1 3 3 6 8 10 8 6 6 6 6 7 7 7 7 8 7 6 6 8 6 7 8 7 5 6 5 4 3 5 7 9 9 8 8 9 9 9 8 5
8 9 7 7 6 6 5 3 3 1 0 2 5 7 9 7 6 5 5 5 6 7 5 5 6 6 5 4 5 3 3 4 5 5 5 3 3 2 3 3 4 6 7 6 6 8 6 5 3
10 8 8 8 7 7 6 3 2 2 2 4 6 6 7 6 5 4 4 4 5 6 6 6 6 6 4 4 3 3 3 3 3 3 4 2 1 1 1 2 2 3 3 3 3 3 4 4 4
10 8 7 8 8 7 6 5 2 1 2 4 5 6 5 5 4 4 4 4 5 5 5 5 5 5 4 3 2 2 2 2 3 3 3 2 1 1 1 1 1 2 2 3 2 3 3 3 4
7 7 7 7 8 7 7 6 5 3 4 4 5 6 5 5 4 4 4 4 4 5 5 3 5 5 4 3 2 2 2 2 2 2 3 2 1 1 1 1 1 2 2 1 2 3 2 2 2
6 8 9 9 9 10 8 7 5 4 5 6 5 6 6 5 5 5 5 5 5 5 4 3 4 5 4 3 2 1 1 1 2 2 2 2 1 1 1 1 1 2 2 2 2 2 2 2 2
9 11 11 9 10 9 9 7 4 5 5 6 5 5 4 4 3 4 6 5 5 5 4 3 3 4 4 3 2 1 1 1 1 1 2 2 1 1 1 1 1 2 2 2 2 1 2 2 2
10 12 11 9 10 9 8 7 4 6 8 6 5 4 4 4 3 4 4 5 5 5 4 4 4 4 3 3 2 1 1 1 1 1 1 1 0 1 0 1 1 1 1 1 3 1 2 2 2
8 10 9 7 7 7 7 5 4 7 6 6 5 5 6 5 5 4 3 4 5 5 4 3 4 3 3 2 2 1 2 1 1 1 1 1 1 1 0 0 1 2 1 1 2 2 2 2 2
8 10 11 8 5 6 6 4 5 5 6 5 5 4 4 4 5 5 4 3 4 5 4 4 4 4 3 2 2 2 1 1 1 1 2 0 0 0 0 1 1 1 1 1 2 2 3 2 1
10 11 11 6 4 5 6 6 6 6 6 5 4 3 3 3 4 5 5 4 4 5 5 4 4 4 3 2 2 2 2 1 1 1 1 1 1 1 1 1 0 1 1 1 2 2 2 3 1
9 10 9 8 6 8 8 8 7 5 4 3 3 3 3 2 3 3 4 4 4 4 4 5 4 4 3 3 2 1 1 0 1 1 1 1 1 1 1 1 1 1 1 1 2 1 2 3 2
8 9 10 10 8 7 8 5 6 6 5 4 3 4 4 4 3 4 4 3 3 5 5 5 5 4 3 3 2 2 2 1 1 1 1 2 2 1 1 1 2 1 1 1 2 1 2 3 3
8 8 10 11 10 10 8 5 4 5 5 4 4 3 3 2 3 4 5 5 4 4 5 5 5 5 4 3 3 2 1 1 1 1 2 2 1 1 1 1 1 1 1 1 1 1 2 2 2
7 8 10 10 7 9 8 6 4 4 5 5 4 3 2 2 2 3 4 5 4 4 4 5 5 4 4 3 3 2 2 1 1 2 1 1 1 1 1 1 1 1 1 1 1 1 2 2 3
6 6 4 5 4 6 5 3 3 4 4 5 5 4 3 4 3 4 4 4 4 4 4 4 5 4 4 3 2 2 2 2 2 2 1 1 0 0 0 1 1 1 1 1 1 1 2 2 3
6 7 5 5 6 5 4 2 4 6 6 5 5 5 4 3 3 3 3 3 4 4 4 3 4 4 3 3 2 2 2 2 1 1 1 0 0 0 0 1 1 1 1 1 1 2 2 2 2
6 7 7 7 8 7 2 5 8 8 6 5 4 5 4 3 3 3 2 2 2 4 4 3 3 3 3 2 2 2 2 1 1 1 1 0 0 1 1 1 1 1 1 1 1 1 2 2 2
7 8 5 5 5 5 3 0 3 5 5 5 4 4 4 4 4 4 2 3 3 3 4 4 4 3 3 3 2 2 1 1 1 1 0 1 1 1 1 1 1 1 1 2 1 2 1 2 2
5 5 4 5 5 5 4 2 4 4 3 4 4 3 4 5 6 5 4 4 3 3 3 3 4 3 2 2 2 2 2 2 2 1 1 1 1 1 1 1 1 1 2 2 1 2 2 2 2
4 5 4 4 5 5 3 1 3 4 4 3 3 4 4 4 4 5 5 4 3 2 3 2 3 3 2 2 2 2 2 2 1 1 1 1 1 1 1 1 1 2 1 1 1 2 2 2 2
Wind_Direction
247 246 242 252 248 243 250 257 279 47 62 47 43 44 55 46 55 95 113 105 107 115 126 128 127 128 128 129 129 129 130 130 128 126 124 121 118 117 115 114 113 112 113 114 114 111 108 105 101
260 254 246 248 254 258 259 304 51 41 53 53 52 46 61 67 71 95 108 105 108 119 129 129 130 129 130 131 131 133 133 134 133 132 130 128 126 125 122 120 118 114 112 113 115 115 112 113 117
259 258 257 248 250 264 297 48 83 75 64 63 60 48 47 74 83 107 115 111 112 119 121 127 132 132 132 133 136 138 138 137 135 135 134 133 131 129 127 124 123 117 111 110 111 117 112 117 135
252 241 240 252 262 265 283 22 93 96 73 70 81 72 73 71 94 113 123 123 120 124 124 128 133 133 134 136 141 142 141 140 139 139 137 135 133 130 128 128 129 125 121 121 122 124 116 123 222
242 254 245 252 258 273 299 1 23 53 83 75 81 84 83 78 97 114 126 126 127 128 126 132 134 135 137 137 140 142 142 142 141 140 138 135 134 135 135 133 130 129 134 141 144 151 171 212 266
245 243 249 254 251 252 284 308 7 323 67 74 96 98 92 103 112 125 124 125 129 127 127 133 138 140 141 141 141 143 144 144 142 141 140 143 146 148 148 146 143 142 149 163 178 192 225 250 265
255 264 262 263 260 252 269 314 346 299 33 25 51 92 116 124 125 123 121 128 122 119 125 137 145 145 146 147 148 149 147 146 147 148 148 154 159 164 165 161 159 166 184 203 217 218 232 246 256
256 274 272 265 266 261 317 296 273 319 31 49 51 102 123 126 131 126 122 122 117 119 125 135 140 146 155 156 156 155 154 153 156 158 162 167 174 179 184 179 177 192 205 218 231 232 237 242 248
255 265 275 279 276 291 15 300 45 75 76 50 62 79 108 122 134 130 130 122 111 115 125 137 139 146 157 158 155 158 161 162 164 169 176 179 189 187 192 184 182 199 210 223 234 236 239 244 245
243 260 272 291 303 315 323 331 341 216 125 111 98 104 115 127 135 135 129 126 120 118 128 135 137 146 155 150 146 162 167 165 178 172 176 194 204 198 185 170 188 204 214 225 234 238 245 243 237
248 258 279 297 305 309 304 316 333 286 169 117 112 117 127 134 144 134 134 132 122 120 119 120 130 130 128 126 147 160 163 157 181 173 179 195 208 197 165 173 190 211 217 223 225 230 233 233 239
256 261 269 279 291 292 292 282 283 323 21 94 114 124 129 137 139 139 133 121 116 115 118 109 107 109 107 116 137 146 156 160 173 165 172 187 203 206 179 199 192 213 219 223 227 233 230 241 252
256 261 267 275 280 276 278 268 249 241 92 113 126 129 136 141 145 131 106 113 110 104 94 105 114 115 112 113 138 139 151 162 161 150 160 174 193 185 226 247 222 233 231 224 236 249 245 245 246
264 269 269 271 275 265 258 260 240 190 159 164 153 148 160 150 143 130 113 98 104 107 107 103 122 120 116 114 116 135 148 148 149 145 151 179 218 187 227 231 246 267 258 247 250 255 249 244 261
277 269 258 247 242 244 243 251 225 200 182 177 172 164 159 150 144 138 124 111 106 102 102 111 132 122 126 129 132 121 120 142 154 146 153 166 222 239 247 265 236 278 279 255 254 270 262 251 248
260 257 253 246 242 236 237 249 197 175 190 182 176 161 143 132 155 135 124 117 117 116 108 123 128 124 135 133 135 136 138 129 97 111 129 145 182 251 279 274 272 288 287 281 263 267 272 264 264
245 245 249 240 233 238 234 237 182 197 192 187 183 165 145 149 162 129 125 121 119 117 119 129 125 129 137 137 145 146 114 90 77 94 103 117 185 227 237 288 327 300 304 314 299 318 298 288 278
263 266 264 252 224 225 239 243 204 201 192 187 189 176 167 167 165 145 132 125 121 119 120 122 125 132 138 138 148 134 120 113 107 106 81 101 187 227 226 237 288 297 309 324 320 325 305 292 287
286 280 280 267 230 220 232 236 232 194 183 180 193 179 166 170 156 140 140 135 127 127 129 133 143 146 148 147 159 157 157 156 149 128 113 130 216 207 183 284 256 297 314 306 314 312 297 294 302
279 277 278 274 256 240 229 230 218 200 186 172 173 170 158 154 142 146 152 151 142 142 147 148 149 149 158 147 163 179 178 184 158 149 167 179 216 252 215 250 264 292 287 288 292 296 295 291 281
267 271 274 278 262 245 231 224 213 179 147 141 154 150 149 146 151 145 154 148 152 155 158 156 154 153 159 157 161 154 142 158 131 154 164 194 214 214 263 232 269 266 266 265 271 311 296 292 292
271 275 275 268 257 253 243 242 187 175 162 153 171 173 163 169 183 167 151 150 160 164 159 156 151 155 161 163 166 173 181 191 213 211 192 206 215 217 219 212 243 258 283 286 279 329 298 290 298
273 280 280 275 265 261 245 245 191 171 171 159 170 177 164 180 181 167 157 164 174 169 155 147 145 154 157 163 169 172 205 231 220 221 202 213 194 187 222 195 213 206 232 249 269 295 284 291 296
279 281 279 277 266 259 248 243 179 164 168 155 148 162 159 139 104 140 148 153 157 157 149 140 137 146 155 165 172 168 203 226 230 239 226 211 177 164 177 183 198 192 228 252 266 277 269 280 295
281 279 278 285 264 257 234 225 95 118 131 141 148 148 145 135 148 148 149 148 143 146 148 143 139 145 156 163 164 172 201 215 213 227 236 202 163 111 222 271 218 212 235 253 271 270 272 275 286
266 268 272 283 283 281 258 197 123 118 111 122 132 138 138 143 152 149 152 151 154 147 134 131 138 146 158 161 160 175 201 218 217 221 241 209 122 129 202 250 261 278 277 272 262 271 267 274 282
270 266 278 280 276 280 248 129 117 110 114 124 128 133 133 146 140 130 142 141 128 123 119 126 137 137 143 149 163 184 192 186 195 225 199 99 356 260 233 249 266 294 285 278 265 264 273 290 277
259 282 295 287 294 297 282 120 123 129 130 137 156 152 137 140 126 112 112 107 103 104 104 118 124 136 153 165 173 176 178 168 176 159 92 168 234 255 245 260 243 243 274 278 282 286 290 295 295
254 262 283 297 300 303 301 16 93 125 142 153 155 151 156 142 135 130 126 120 133 120 121 141 130 136 163 176 169 156 160 167 154 168 204 196 227 246 245 246 253 256 266 276 289 277 286 297 292
293 290 278 282 297 300 306 48 104 141 148 124 123 134 124 116 123 132 134 135 134 127 137 155 144 150 159 159 154 148 142 152 157 185 186 198 234 257 247 235 263 263 278 289 297 302 323 311 297